Regional Weather Roundup
Issued by NWS

Home | Current Version | Previous Version | Graphics & Text | Print | Product List | Glossary On
Versions: 1 2 3 4 5 6 7 8 9 10 11 12 13 14 15 16 17 18 19 20 21 22 23 24 25 26 27 28 29 30 31 32 33 34 35 36 37 38 39 40 41 42 43 44 45 46 47 48 49 50
488
ASUS43 KLOT 051108
RWRIL

ILLINOIS REGIONAL WEATHER ROUNDUP
NATIONAL WEATHER SERVICE CHICAGO/ROMEOVILLE IL
500 AM CST MON DEC 05 2016

NOTE: "FAIR" INDICATES FEW OR NO CLOUDS BELOW 12,000 FEET WITH NO
SIGNIFICANT WEATHER AND/OR OBSTRUCTIONS TO VISIBILITY.

* THESE STATIONS ARE NOT UNDER NWS QUALITY CONTROL. THEY ALSO MAY NOT
  REPORT WEATHER SUCH AS PRECIPITATION OR FOG.

ILZ001-002-007-009-015-016-024-051200-
NORTHWEST ILLINOIS

CITY           SKY/WX    TMP DP  RH WIND       PRES   REMARKS
MOLINE         CLOUDY    33  31  92 S7        29.99S FOG     WCI  27
STERLING*      CLOUDY    33  31  92 SW5       30.00S WCI  29
SAVANNA*       CLOUDY    33  32  95 SW8       29.98R FOG     WCI  26
$$

ILZ003-004-008-010-011-017-018-051200-
NORTH CENTRAL ILLINOIS

CITY           SKY/WX    TMP DP  RH WIND       PRES   REMARKS
ROCKFORD       CLOUDY    33  31  92 SW5       30.00S FOG     WCI  29
FREEPORT*      CLOUDY    32  32  98 SW8       29.99S FOG     WCI  25
ROCHELLE*      CLOUDY    32  32  98 W12       30.00R FOG     WCI  23
DE KALB*       CLOUDY    32  31  97 W9        29.99S FOG     WCI  24
$$

ILZ005-006-012>014-019>023-051200-
NORTHEAST ILLINOIS

CITY           SKY/WX    TMP DP  RH WIND       PRES   REMARKS
CHICAGO-OHARE  CLOUDY    33  30  88 W10       30.00R WCI  25
CHICAGO-MIDWAY CLOUDY    34  30  85 W10       30.01R WCI  26
AURORA         CLOUDY    34  31  88 W9        30.00S WCI  27
LANSING*       CLOUDY    33  32  98 W6        30.02R WCI  27
JOLIET*        CLOUDY    34  32  93 W6        30.01S WCI  29
WAUKEGAN       CLOUDY    33  31  92 VRB5      29.97R WCI  29
DUPAGE AIRPORT CLOUDY    33  30  88 W10       29.99R WCI  25
KANKAKEE*      CLOUDY    32  32  98 CALM      30.03S
WHEELING       CLOUDY    33  30  88 W12       30.00R WCI  24
MORRIS*        CLOUDY    33  31  93 W7        30.00S WCI  26
ROMEOVILLE*    CLOUDY    32  32 100 W3        30.01S
NORTHERLY ISL    N/A     34  30  86 W8          N/A  WCI  27
$$

LMZ740>746-051200-
SOUTHERN LAKE MICHIGAN

STATION/POSITION SKY/WX   TEMP    WIND        PRES    VSBY  WAVE
                          AIR SEA DIR/SP/G                  HT/PER
                          (F)     (DEG/KT/KT) (MB)    (MI)  (FT/S)
HARRISON CRIB              35     240/ 10/ 14   N/A
BURNHAM HARBOR             34     260/  8/ 13   N/A
CALUMET HARBOR             33     240/  5/  7 1015.7R
BURNS HARBOR               34     220/ 11/ 14 1016.9S
$$

ILZ025>027-034>036-040-047-049-050-058-095>099-051200-
WEST-CENTRAL ILLINOIS

CITY           SKY/WX    TMP DP  RH WIND       PRES   REMARKS
QUINCY         FOG       32  32 100 SE5       29.99F VSB<1/4 WCI  27
GALESBURG*     FOG       32  32 100 SW3       29.99S VSB 1/2
MACOMB*        FOG       32  32 100 CALM      30.02S VSB 1/4
JACKSONVILLE*  CLOUDY    33  33  99 SE3       30.03S FOG
PITTSFIELD*    FOG       31  31 100 SE5       30.02F VSB 1/2 WCI  27
$$

ILZ028>032-037-038-041>044-048-051>054-059>061-051200-
CENTRAL ILLINOIS

CITY           SKY/WX    TMP DP  RH WIND       PRES   REMARKS
PONTIAC        CLOUDY    33  33 100 SW5       30.03R WCI  28
BLOOMINGTON    CLOUDY    31  30  96 SW6       30.03R WCI  25
DECATUR        CLOUDY    33  30  88 SW6       30.05R WCI  28
PEORIA         CLOUDY    33  32  96 SW5       30.02S WCI  29
LACON*         CLOUDY    32  31  98 SW3       30.02R
LINCOLN*       CLOUDY    35  34  98 CALM      30.03F
SPRINGFIELD    CLOUDY    35  34  96 CALM      30.04F FOG
TAYLORVILLE    CLOUDY    34  33  97 CALM      30.05S
$$

ILZ033-039-045-046-055>057-062-063-051200-
EAST-CENTRAL ILLINOIS

CITY           SKY/WX    TMP DP  RH WIND       PRES   REMARKS
CHAMPAIGN      CLOUDY    33  30  88 W5        30.05S WCI  29
RANTOUL*       CLOUDY    33  32  95 SW5       30.04R WCI  29
MATTOON        CLOUDY    34  30  85 S5        30.05S WCI  30
PARIS*         CLOUDY    34  32  93 SW3       30.07S
$$

ILZ079-100>102-051200-
SOUTHWEST ILLINOIS

CITY           SKY/WX    TMP DP  RH WIND       PRES   REMARKS
ALTON          CLOUDY    34  33  96 CALM      30.05S
BELLEVILLE     CLOUDY    37  37  99 SE1       30.05F
CAHOKIA*       CLOUDY    37  33  85 CALM      30.05F
SPARTA*        CLOUDY    36  33  90 CALM      30.07S
$$

ILZ064>066-069>071-074>076-080>082-084>086-088>090-092>094-051200-
SOUTH-CENTRAL ILLINOIS

CITY           SKY/WX    TMP DP  RH WIND       PRES   REMARKS
CARBONDALE     CLOUDY    35  33  92 CALM      30.07S
CAIRO*         PTCLDY    34  33  96 NE3       30.06F
EFFINGHAM*     CLOUDY    35  34  96 S3        30.09S
MARION         CLOUDY    39  36  87 CALM      30.08S
CENTRALIA*     CLOUDY    37  35  91 CALM      30.06F FOG
SALEM*         CLOUDY    37  32  82 CALM      30.07F
METROPOLIS*    CLOUDY    38  34  86 CALM      30.07F
$$

ILZ067-068-072-073-078-083-087-091-051200-
SOUTHEAST ILLINOIS

CITY           SKY/WX    TMP DP  RH WIND       PRES   REMARKS
LAWRENCEVILLE  CLOUDY    36  32  85 CALM      30.09S
FLORA*         CLOUDY    37  33  84 CALM      30.08F
FAIRFIELD*     CLOUDY    37  33  85 CALM      30.07F
HARRISBURG*    CLOUDY    38  32  80 CALM      30.08F
ROBINSON*      CLOUDY    34  32  92 CALM      30.10S
CARMI*         CLOUDY    37  33  83 CALM      30.08F
$$

ABBREVIATIONS USED IN REMARKS
   TC - TEMPERATURE IN CELSIUS
  WCI - WIND CHILL INDEX
   HX - HEAT INDEX
  VSB - VISIBILITY
$$





USA.gov is the U.S. government's official web portal to all federal, state and local government web resources and services.